Regional Weather Roundup
Issued by NWS

Home | Current Version | Previous Version | Graphics & Text | Print | Product List | Glossary On
Versions: 1 2 3 4 5 6 7 8 9 10 11 12 13 14 15 16 17 18 19 20 21 22 23 24 25 26 27 28 29 30 31 32 33 34 35 36 37 38 39 40 41 42 43 44 45 46 47 48 49 50
000
ASUS43 KDMX 031207
RWRIA

WEATHER ROUNDUP FOR IOWA
NATIONAL WEATHER SERVICE DES MOINES IA
700 AM CDT FRI JUL 03 2015

NOTE: "FAIR" INDICATES FEW OR NO CLOUDS BELOW 12,000 FEET WITH NO
SIGNIFICANT WEATHER AND/OR OBSTRUCTIONS TO VISIBILITY.

* - THESE STATIONS ARE NOT NWS STATIONS...THUS NOT UNDER NWS
QUALITY CONTROL.  THEY ALSO DO NOT REPORT WEATHER SUCH
AS PRECIPITATION OR FOG.

IAZ001>003-012>014-020>022-031>034-043>046-031300-
   NORTHWEST IOWA

CITY           SKY/WX    TMP DP  RH WIND       PRES   REMARKS
CARROLL *      SUNNY     55  55 100 CALM      30.01S
CHEROKEE *     FOG       50  50 100 CALM      30.03R VSB 1/4
DENISON *      SUNNY     54  54 100 CALM      30.00S FOG
LE MARS *      FOG       52  52 100 CALM      30.03S VSB 0
ORANGE CITY *  MOSUNNY   50  50 100 CALM      30.02S FOG
SHELDON *      FOG       48  48 100 CALM      30.01S VSB 0
SIOUX CITY     FOG       54  52  93 NW3       30.02R VSB 1/4
6HR MIN TEMP:  52; 6HR MAX TEMP:  62;

SPENCER        FOG       48  45  89 CALM      30.02S VSB 1/4
6HR MIN TEMP:  44; 6HR MAX TEMP:  51;

STORM LAKE *   SUNNY     54  54 100 N5        30.03R
$$

IAZ055>058-069>071-079>083-090>094-031300-
   SOUTHWEST IOWA

CITY           SKY/WX    TMP DP  RH WIND       PRES   REMARKS
ATLANTIC *     SUNNY     55  55 100 N3        30.01R
AUDUBON *      SUNNY     55  52  88 CALM      30.02S
CLARINDA *     SUNNY     57  57 100 NE5       30.01R
COUNCIL BLFS * SUNNY     55  55 100 N6        30.01R
CRESTON *      SUNNY     59  57  94 NE8       30.00R
HARLAN  *      SUNNY     55  55 100 N5        30.04R
LAMONI         SUNNY     59  57  93 N6        29.98R
6HR MIN TEMP:  58; 6HR MAX TEMP:  62;

RED OAK *      SUNNY     57  57 100 CALM      30.00R
SHENANDOAH *   SUNNY     59  57  94 CALM      30.00R
$$

IAZ047>049-059>061-072>074-084-031300-
   CENTRAL IOWA

CITY           SKY/WX    TMP DP  RH WIND       PRES   REMARKS
AMES           SUNNY     55  53  93 CALM      30.00R
6HR MIN TEMP:  51; 6HR MAX TEMP:  57;

ANKENY *       SUNNY     55  55 100 N5        29.99R
CHARITON *     SUNNY     57  55  94 N5        29.99R
DES MOINES     MOSUNNY   60  55  83 CALM      29.99R
6HR MIN TEMP:  59; 6HR MAX TEMP:  64;

GRINNELL*      MOSUNNY   57  54  88 N6        30.00S
KNOXVILLE *    PTSUNNY   61  57  88 N3        29.98R
MARSHALLTOWN   SUNNY     55  54  96 CALM      29.99S
6HR MIN TEMP:  52; 6HR MAX TEMP:  60;

PELLA *        PTSUNNY   60  59  98 CALM      30.01R
PERRY *          N/A     57  55  94 CALM      30.00S
$$

IAZ004>006-015-016-023>025-035-036-031300-
   NORTH CENTRAL IOWA

CITY           SKY/WX    TMP DP  RH WIND       PRES   REMARKS
ALGONA *       SUNNY     54  52  94 CALM      30.02S FOG
CLARION *      SUNNY     55  52  88 NE3       30.01S
ESTHERVILLE    SUNNY     50  49  96 W5        30.02R
6HR MIN TEMP:  47; 6HR MAX TEMP:  51;

FORT DODGE *   SUNNY     52  48  87 CALM      30.02R
MASON CITY     SUNNY     55  53  93 CALM      30.02F
6HR MIN TEMP:  51; 6HR MAX TEMP:  58;

FOREST CITY *  SUNNY     52  52 100 CALM      30.02R
IOWA FALLS *     N/A     54  52  94 CALM      30.02R
$$

IAZ007>011-017>019-026>030-037>042-050>054-066-031300-
   NORTHEAST IOWA

CITY           SKY/WX    TMP DP  RH WIND       PRES   REMARKS
CEDAR RAPIDS   MOSUNNY   57  55  93 NE5       29.99R
6HR MIN TEMP:  54; 6HR MAX TEMP:  62;

CHARLES CITY * SUNNY     55  55 100 CALM      30.01F
CLINTON *      PTSUNNY   55  54  94 N7        30.01R
DECORAH *        N/A    N/A N/A N/A MISG        N/A
DUBUQUE        MOSUNNY   55  52  89 NE5       30.01R
6HR MIN TEMP:  51; 6HR MAX TEMP:  58;

MONTICELLO *   SUNNY     54  54 100 CALM      30.00R
OELWEIN *      SUNNY     54  52  94 NE5       30.02R
WATERLOO       SUNNY     54  52  93 MISG      30.00R
6HR MIN TEMP:  51; 6HR MAX TEMP:  57;

$$

IAZ064-065-067-068-078-031300-
   EAST CENTRAL IOWA

CITY           SKY/WX    TMP DP  RH WIND       PRES   REMARKS
DAVENPORT      PTSUNNY   58  55  90 NE5       29.98R
6HR MIN TEMP:  56; 6HR MAX TEMP:  61;

IOWA CITY      PTSUNNY   61  56  83 NE5       29.99R
6HR MIN TEMP:  60; 6HR MAX TEMP:  65;

MT. PLEASANT * PTSUNNY   63  58  86 N3        29.98R
MUSCATINE *    SUNNY     61  57  88 N7        29.98R
QUAD CITIES    CLOUDY    61  56  83 NE3       29.97R
6HR MIN TEMP:  59; 6HR MAX TEMP:  63;

$$

IAZ062-063-075>077-085>089-095>099-031300-
   SOUTHEAST IOWA

CITY           SKY/WX    TMP DP  RH WIND       PRES   REMARKS
BURLINGTON     CLOUDY    62  59  90 NE7       29.95S
6HR MIN TEMP:  61; 6HR MAX TEMP:  65;

FAIRFIELD *    SUNNY     59  57  94 N3        29.98R
FORT MADISON * SUNNY     61  61 100 CALM      29.97R FOG
KEOKUK *       MOSUNNY   63  61  94 N5        29.95R
OSKALOOSA *      N/A     58  56  94 CALM      29.99R
CENTERVILLE *  SUNNY     59  57  94 N5        29.99R
OTTUMWA        CLOUDY    60  57  89 N5        29.97R
6HR MIN TEMP:  60; 6HR MAX TEMP:  63;

WASHINGTON *   SUNNY     59  57  94 NE6       29.99S
$$

ABBREVIATIONS USED IN REMARKS
   TC - TEMPERATURES IN CELSIUS
  WCI - WIND CHILL INDEX
   HX - HEAT INDEX
  VSB - VISIBILITY
$$




USA.gov is the U.S. government's official web portal to all federal, state and local government web resources and services.